Location: Agua Amarilla
(10.0342°N, 66.8490°W)
Time: 04:31:02
(UTC+00:00)

Centaur D-1A AC-35 - Pass Details

Date: 26 June 2022
Orbit: 589 x 36443 km, 26.1° (Epoch: 18 August)

Event Time Altitude Azimuth Distance (km) Brightness Sun altitude
Rises 23:25:02 0° 287° (WNW) 6,129 9.3 -8.3°
Reaches altitude 10° 23:30:57 10° 276° (W) 3,362 7.1 -9.6°
Maximum altitude 23:36:08 26° 219° (SW) 1,396 4.0 -10.8°
Drops below altitude 10° 23:39:12 10° 157° (SSE) 1,924 4.1 -11.4°
Enters shadow 23:39:18 - 156° (SSE) 1,961 4.2 -11.5°
